N376S KPDK-KFLL

Flight info

Callsign N376S
Flight time 1h 29m
Altitude 41000
Route SOONE IISLY DOFFY CLEOO TEEKY4
Aircraft E55P/L-SDGRWY/L

Departure

Time 2026-04-25 21:53
Airport DeKalb Peachtree Airport (KPDK)

Arrival

Time 2026-04-25 23:23
Airport Fort Lauderdale Hollywood International Airport (KFLL)
Time Latitude Longitude Altitude Speed Heading
2026-04-25 21:38 33.87532 -84.30417 986 ft 0 kts 56°
2026-04-25 21:47 33.87535 -84.30413 985 ft 0 kts 56°
2026-04-25 21:47 33.87540 -84.30403 985 ft 2 kts 57°
2026-04-25 21:47 33.87555 -84.30376 984 ft 5 kts 58°
2026-04-25 21:48 33.87585 -84.30340 983 ft 7 kts 25°
2026-04-25 21:48 33.87642 -84.30312 981 ft 10 kts 22°
2026-04-25 21:48 33.87711 -84.30283 980 ft 10 kts 20°
2026-04-25 21:48 33.87785 -84.30251 979 ft 12 kts 19°
2026-04-25 21:49 33.87820 -84.30237 978 ft 0 kts 18°
2026-04-25 21:49 33.87820 -84.30236 978 ft 0 kts 18°
2026-04-25 21:49 33.87831 -84.30231 977 ft 5 kts 24°
2026-04-25 21:50 33.87892 -84.30202 976 ft 13 kts 21°
2026-04-25 21:50 33.87992 -84.30157 975 ft 16 kts 21°
2026-04-25 21:50 33.88095 -84.30109 976 ft 15 kts 20°
2026-04-25 21:50 33.88163 -84.30079 975 ft 15 kts 20°
2026-04-25 21:51 33.88306 -84.30015 975 ft 15 kts 22°
2026-04-25 21:51 33.88405 -84.29969 975 ft 3 kts 21°
2026-04-25 21:51 33.88411 -84.29966 975 ft 3 kts 19°
2026-04-25 21:52 33.88450 -84.29942 975 ft 9 kts 49°
2026-04-25 21:52 33.88436 -84.29839 971 ft 15 kts 112°
2026-04-25 21:52 33.88401 -84.29724 966 ft 12 kts 124°
2026-04-25 21:52 33.88364 -84.29726 965 ft 0 kts 202°
2026-04-25 21:53 33.88355 -84.29730 965 ft 11 kts 203°
2026-04-25 21:53 33.87987 -84.29896 968 ft 101 kts 202°
2026-04-25 21:53 33.87126 -84.30267 1263 ft 147 kts 201°
2026-04-25 21:53 33.86150 -84.30720 2074 ft 162 kts 204°
2026-04-25 21:54 33.85021 -84.31231 2877 ft 184 kts 201°
2026-04-25 21:54 33.83740 -84.31176 3837 ft 202 kts 154°
2026-04-25 21:54 33.82599 -84.30245 4978 ft 203 kts 152°
2026-04-25 21:54 33.81285 -84.29655 6078 ft 203 kts 171°
2026-04-25 21:55 33.79893 -84.29336 7114 ft 206 kts 175°
2026-04-25 21:55 33.78460 -84.29111 8096 ft 210 kts 178°
2026-04-25 21:55 33.76972 -84.28912 9076 ft 215 kts 179°
2026-04-25 21:55 33.75473 -84.28722 10007 ft 219 kts 179°
2026-04-25 21:56 33.73943 -84.28532 10944 ft 223 kts 179°
2026-04-25 21:56 33.72862 -84.28402 11607 ft 224 kts 179°
2026-04-25 21:56 33.70651 -84.28134 12654 ft 240 kts 179°
2026-04-25 21:56 33.68826 -84.27917 12747 ft 282 kts 178°
2026-04-25 21:57 33.66820 -84.27671 13520 ft 292 kts 178°
2026-04-25 21:57 33.64774 -84.27414 14694 ft 286 kts 178°
2026-04-25 21:57 33.62742 -84.27167 15691 ft 287 kts 179°
2026-04-25 21:57 33.60722 -84.26926 16470 ft 294 kts 179°
2026-04-25 21:58 33.58669 -84.26675 17233 ft 300 kts 179°
2026-04-25 21:58 33.56589 -84.26421 18070 ft 302 kts 179°
2026-04-25 21:58 33.54483 -84.26169 18878 ft 306 kts 179°
2026-04-25 21:58 33.52340 -84.25904 19627 ft 311 kts 178°
2026-04-25 21:59 33.50156 -84.25641 20386 ft 315 kts 179°
2026-04-25 21:59 33.47942 -84.25372 21140 ft 319 kts 179°
2026-04-25 21:59 33.45738 -84.25108 21836 ft 323 kts 179°
2026-04-25 22:00 33.41200 -84.24554 23185 ft 333 kts 179°
2026-04-25 22:00 33.38898 -84.24277 23928 ft 335 kts 179°
2026-04-25 22:00 33.36516 -84.23991 24401 ft 346 kts 179°
2026-04-25 22:00 33.34044 -84.23696 24459 ft 368 kts 179°
2026-04-25 22:01 33.31455 -84.23381 24993 ft 375 kts 178°
2026-04-25 22:01 33.28893 -84.23069 25824 ft 372 kts 179°
2026-04-25 22:01 33.26314 -84.22753 26627 ft 370 kts 179°
2026-04-25 22:01 33.25465 -84.22652 26846 ft 371 kts 179°
2026-04-25 22:02 33.21160 -84.22131 27936 ft 373 kts 180°
2026-04-25 22:02 33.18598 -84.21825 28709 ft 371 kts 179°
2026-04-25 22:02 33.16061 -84.21519 29525 ft 366 kts 180°
2026-04-25 22:02 33.13552 -84.21214 30257 ft 363 kts 180°
2026-04-25 22:03 33.11000 -84.20908 31017 ft 359 kts 180°
2026-04-25 22:03 33.08349 -84.20587 31823 ft 355 kts 179°
2026-04-25 22:03 33.05654 -84.19720 32565 ft 360 kts 167°
2026-04-25 22:03 33.03072 -84.18689 33197 ft 359 kts 168°
2026-04-25 22:04 33.00543 -84.17692 33878 ft 356 kts 168°
2026-04-25 22:04 32.98213 -84.16779 34562 ft 354 kts 168°
2026-04-25 22:04 32.95893 -84.15864 35273 ft 350 kts 169°
2026-04-25 22:04 32.93605 -84.14967 35906 ft 349 kts 169°
2026-04-25 22:05 32.91267 -84.14053 36548 ft 348 kts 170°
2026-04-25 22:05 32.88933 -84.13140 37123 ft 348 kts 170°
2026-04-25 22:05 32.86407 -84.12151 37731 ft 348 kts 170°
2026-04-25 22:05 32.83957 -84.11192 38375 ft 347 kts 171°
2026-04-25 22:06 32.81585 -84.10264 38965 ft 346 kts 171°
2026-04-25 22:06 32.79262 -84.09357 39487 ft 346 kts 171°
2026-04-25 22:06 32.76906 -84.08440 40033 ft 346 kts 171°
2026-04-25 22:06 32.74488 -84.07497 40450 ft 346 kts 171°
2026-04-25 22:07 32.71952 -84.06512 40816 ft 349 kts 171°
2026-04-25 22:07 32.70226 -84.05844 40842 ft 358 kts 170°
2026-04-25 22:07 32.66586 -84.04427 40864 ft 375 kts 169°
2026-04-25 22:07 32.63713 -84.03307 40866 ft 388 kts 169°
2026-04-25 22:08 32.60772 -84.02164 40863 ft 401 kts 169°
2026-04-25 22:08 32.57985 -84.01080 40871 ft 413 kts 169°
2026-04-25 22:08 32.52312 -83.98875 40863 ft 434 kts 168°
2026-04-25 22:09 32.46340 -83.96544 40849 ft 419 kts 169°
2026-04-25 22:09 32.40319 -83.94221 40856 ft 412 kts 169°
2026-04-25 22:10 32.34226 -83.91862 40859 ft 418 kts 169°
2026-04-25 22:10 32.28017 -83.89467 40854 ft 423 kts 169°
2026-04-25 22:11 32.22141 -83.87199 40856 ft 427 kts 169°
2026-04-25 22:11 32.16275 -83.84939 40855 ft 431 kts 168°
2026-04-25 22:12 32.10538 -83.82732 40847 ft 435 kts 168°
2026-04-25 22:12 32.06669 -83.81244 40852 ft 437 kts 168°
2026-04-25 22:13 31.98880 -83.78253 40852 ft 438 kts 168°
2026-04-25 22:13 31.92965 -83.75987 40859 ft 440 kts 168°
2026-04-25 22:14 31.86970 -83.73695 40860 ft 440 kts 168°
2026-04-25 22:14 31.81123 -83.71463 40857 ft 440 kts 168°
2026-04-25 22:15 31.75314 -83.69245 40851 ft 440 kts 168°
2026-04-25 22:16 31.66581 -83.65918 40857 ft 441 kts 168°
2026-04-25 22:16 31.60736 -83.63695 40858 ft 442 kts 168°
2026-04-25 22:17 31.54908 -83.61480 40869 ft 442 kts 168°
2026-04-25 22:17 31.49029 -83.59244 40873 ft 443 kts 168°
2026-04-25 22:18 31.43156 -83.57021 40883 ft 442 kts 168°
2026-04-25 22:18 31.37334 -83.54823 40878 ft 442 kts 168°
2026-04-25 22:19 31.31480 -83.52612 40878 ft 444 kts 168°
2026-04-25 22:19 31.25623 -83.50401 40877 ft 443 kts 168°
2026-04-25 22:20 31.19765 -83.48190 40872 ft 444 kts 168°
2026-04-25 22:20 31.13865 -83.45976 40874 ft 446 kts 167°
2026-04-25 22:21 31.07949 -83.43744 40867 ft 445 kts 168°
2026-04-25 22:21 31.02075 -83.41548 40871 ft 445 kts 168°
2026-04-25 22:22 30.96143 -83.39316 40868 ft 448 kts 168°
2026-04-25 22:22 30.90172 -83.37083 40894 ft 451 kts 167°
2026-04-25 22:23 30.84173 -83.34841 40888 ft 452 kts 168°
2026-04-25 22:23 30.78215 -83.32615 40879 ft 448 kts 168°
2026-04-25 22:24 30.72186 -83.30368 40881 ft 451 kts 168°
2026-04-25 22:24 30.66334 -83.27408 40875 ft 458 kts 160°
2026-04-25 22:25 30.60551 -83.24287 40886 ft 458 kts 160°
2026-04-25 22:25 30.54716 -83.21146 40861 ft 457 kts 160°
2026-04-25 22:26 30.48954 -83.18049 40876 ft 459 kts 160°
2026-04-25 22:26 30.43142 -83.14932 40865 ft 458 kts 160°
2026-04-25 22:27 30.37344 -83.11826 40875 ft 460 kts 160°
2026-04-25 22:27 30.31556 -83.08727 40869 ft 458 kts 160°
2026-04-25 22:28 30.25754 -83.05629 40848 ft 458 kts 160°
2026-04-25 22:28 30.19971 -83.02541 40873 ft 460 kts 159°
2026-04-25 22:29 30.14128 -82.99424 40864 ft 460 kts 159°
2026-04-25 22:29 30.08307 -82.96325 40864 ft 460 kts 159°
2026-04-25 22:30 29.99554 -82.91674 40859 ft 460 kts 159°
2026-04-25 22:30 29.95596 -82.89570 40866 ft 460 kts 159°
2026-04-25 22:31 29.87753 -82.85410 40862 ft 460 kts 159°
2026-04-25 22:31 29.81942 -82.82336 40867 ft 459 kts 159°
2026-04-25 22:32 29.76120 -82.79260 40871 ft 461 kts 159°
2026-04-25 22:32 29.70275 -82.76173 40875 ft 461 kts 159°
2026-04-25 22:33 29.64470 -82.73109 40870 ft 460 kts 159°
2026-04-25 22:33 29.58677 -82.70061 40875 ft 459 kts 159°
2026-04-25 22:34 29.52884 -82.67015 40873 ft 459 kts 158°
2026-04-25 22:34 29.47047 -82.63949 40882 ft 459 kts 159°
2026-04-25 22:35 29.41263 -82.60913 40884 ft 459 kts 158°
2026-04-25 22:35 29.35446 -82.57866 40890 ft 459 kts 158°
2026-04-25 22:36 29.29632 -82.54823 40890 ft 459 kts 158°
2026-04-25 22:36 29.23637 -82.52713 40930 ft 445 kts 183°
2026-04-25 22:37 29.17422 -82.52721 40902 ft 447 kts 184°
2026-04-25 22:37 29.11234 -82.52719 40903 ft 446 kts 184°
2026-04-25 22:38 29.05026 -82.52715 40904 ft 446 kts 184°
2026-04-25 22:38 28.98791 -82.52712 40906 ft 446 kts 184°
2026-04-25 22:39 28.92602 -82.52709 40909 ft 447 kts 184°
2026-04-25 22:39 28.86363 -82.52705 40899 ft 446 kts 184°
2026-04-25 22:40 28.80155 -82.52703 40903 ft 448 kts 184°
2026-04-25 22:40 28.73916 -82.52699 40900 ft 446 kts 184°
2026-04-25 22:41 28.67693 -82.52698 40897 ft 449 kts 184°
2026-04-25 22:41 28.61447 -82.52692 40903 ft 447 kts 184°
2026-04-25 22:42 28.55216 -82.52690 40894 ft 447 kts 184°
2026-04-25 22:42 28.49025 -82.52688 40902 ft 448 kts 184°
2026-04-25 22:43 28.42763 -82.52683 40896 ft 448 kts 184°
2026-04-25 22:43 28.36533 -82.52680 40895 ft 449 kts 184°
2026-04-25 22:44 28.30248 -82.52677 40900 ft 448 kts 183°
2026-04-25 22:44 28.24038 -82.52674 40897 ft 448 kts 184°
2026-04-25 22:45 28.17749 -82.52671 40899 ft 448 kts 183°
2026-04-25 22:45 28.11479 -82.52666 40900 ft 448 kts 184°
2026-04-25 22:46 28.05156 -82.52665 40907 ft 450 kts 183°
2026-04-25 22:46 27.98867 -82.52316 40892 ft 456 kts 167°
2026-04-25 22:47 27.92660 -82.50090 40310 ft 465 kts 165°
2026-04-25 22:47 27.89556 -82.48985 39720 ft 461 kts 165°
2026-04-25 22:47 27.86480 -82.47892 39114 ft 455 kts 165°
2026-04-25 22:48 27.83443 -82.46813 38513 ft 452 kts 165°
2026-04-25 22:48 27.80375 -82.45725 37908 ft 454 kts 165°
2026-04-25 22:48 27.77321 -82.44646 37319 ft 458 kts 164°
2026-04-25 22:48 27.74247 -82.43557 36748 ft 457 kts 164°
2026-04-25 22:49 27.71213 -82.42481 36185 ft 455 kts 164°
2026-04-25 22:49 27.68179 -82.41410 35618 ft 455 kts 164°
2026-04-25 22:49 27.65142 -82.40337 35059 ft 457 kts 164°
2026-04-25 22:49 27.62066 -82.39252 34497 ft 459 kts 164°
2026-04-25 22:50 27.59024 -82.38177 33944 ft 458 kts 164°
2026-04-25 22:50 27.55916 -82.37079 33388 ft 459 kts 164°
2026-04-25 22:50 27.52875 -82.36009 32862 ft 461 kts 163°
2026-04-25 22:50 27.49786 -82.34922 32332 ft 462 kts 164°
2026-04-25 22:51 27.46686 -82.33826 31801 ft 465 kts 164°
2026-04-25 22:51 27.43590 -82.32739 31271 ft 466 kts 164°
2026-04-25 22:51 27.40504 -82.31653 30943 ft 464 kts 163°
2026-04-25 22:51 27.37421 -82.30472 30881 ft 466 kts 156°
2026-04-25 22:52 27.31792 -82.26907 30897 ft 467 kts 150°
2026-04-25 22:52 27.27080 -82.23906 30895 ft 469 kts 151°
2026-04-25 22:53 27.20416 -82.19677 30892 ft 470 kts 151°
2026-04-25 22:53 27.14741 -82.16082 30892 ft 468 kts 150°
2026-04-25 22:54 27.09085 -82.12502 30894 ft 469 kts 150°
2026-04-25 22:54 27.03380 -82.08896 30891 ft 470 kts 150°
2026-04-25 22:55 26.97669 -82.05290 30897 ft 469 kts 150°
2026-04-25 22:55 26.95061 -82.03123 30893 ft 467 kts 133°
2026-04-25 22:55 26.92859 -82.00449 30898 ft 467 kts 133°
2026-04-25 22:56 26.88400 -81.95162 30896 ft 468 kts 133°
2026-04-25 22:56 26.83922 -81.89873 30898 ft 469 kts 133°
2026-04-25 22:57 26.79409 -81.84548 30320 ft 474 kts 132°
2026-04-25 22:57 26.77176 -81.81921 29792 ft 463 kts 132°
2026-04-25 22:57 26.74969 -81.79349 29259 ft 457 kts 133°
2026-04-25 22:58 26.72767 -81.76784 28609 ft 456 kts 133°
2026-04-25 22:58 26.70580 -81.74235 27970 ft 452 kts 133°
2026-04-25 22:58 26.68410 -81.71714 27333 ft 448 kts 133°
2026-04-25 22:58 26.66271 -81.69228 26694 ft 443 kts 133°
2026-04-25 22:59 26.64166 -81.66781 26063 ft 439 kts 133°
2026-04-25 22:59 26.62166 -81.64205 25424 ft 435 kts 125°
2026-04-25 22:59 26.60381 -81.61511 24799 ft 431 kts 126°
2026-04-25 22:59 26.58616 -81.58877 24175 ft 428 kts 126°
2026-04-25 23:00 26.56838 -81.56231 23533 ft 424 kts 126°
2026-04-25 23:00 26.54824 -81.53838 22878 ft 419 kts 144°
2026-04-25 23:00 26.52325 -81.52281 22283 ft 415 kts 153°
2026-04-25 23:00 26.49804 -81.50787 21698 ft 405 kts 153°
2026-04-25 23:01 26.47332 -81.49336 21091 ft 392 kts 153°
2026-04-25 23:01 26.44959 -81.47938 20463 ft 381 kts 153°
2026-04-25 23:01 26.42666 -81.46585 19869 ft 371 kts 153°
2026-04-25 23:01 26.40413 -81.45254 19261 ft 363 kts 153°
2026-04-25 23:02 26.38197 -81.43945 18651 ft 356 kts 153°
2026-04-25 23:02 26.36044 -81.42670 18060 ft 351 kts 153°
2026-04-25 23:02 26.33879 -81.41384 17455 ft 351 kts 153°
2026-04-25 23:02 26.31732 -81.40106 16856 ft 351 kts 153°
2026-04-25 23:03 26.29585 -81.38831 16263 ft 349 kts 153°
2026-04-25 23:03 26.27457 -81.37570 15666 ft 345 kts 153°
2026-04-25 23:03 26.25361 -81.36330 15068 ft 341 kts 153°
2026-04-25 23:03 26.23280 -81.35094 14468 ft 337 kts 153°
2026-04-25 23:04 26.21232 -81.33883 13861 ft 335 kts 153°
2026-04-25 23:04 26.19869 -81.33075 13453 ft 333 kts 153°
2026-04-25 23:04 26.17146 -81.31468 12649 ft 329 kts 153°
2026-04-25 23:04 26.15143 -81.30290 12050 ft 324 kts 153°
2026-04-25 23:05 26.13153 -81.29131 11437 ft 319 kts 153°
2026-04-25 23:05 26.11208 -81.28011 10841 ft 315 kts 153°
2026-04-25 23:05 26.09260 -81.26895 10231 ft 310 kts 153°
2026-04-25 23:05 26.07391 -81.25832 9926 ft 296 kts 153°
2026-04-25 23:06 26.05550 -81.24786 9891 ft 298 kts 153°
2026-04-25 23:06 26.03954 -81.23304 9880 ft 304 kts 123°
2026-04-25 23:06 26.03274 -81.21107 9887 ft 301 kts 91°
2026-04-25 23:06 26.03598 -81.18859 9906 ft 299 kts 74°
2026-04-25 23:07 26.04033 -81.16578 9888 ft 300 kts 75°
2026-04-25 23:07 26.04501 -81.14295 9452 ft 302 kts 76°
2026-04-25 23:07 26.04958 -81.12063 8974 ft 295 kts 76°
2026-04-25 23:07 26.05404 -81.09880 8491 ft 288 kts 76°
2026-04-25 23:08 26.05846 -81.07738 8005 ft 282 kts 76°
2026-04-25 23:08 26.06279 -81.05630 7519 ft 278 kts 76°
2026-04-25 23:08 26.06709 -81.03553 7042 ft 275 kts 77°
2026-04-25 23:08 26.07124 -81.01526 6906 ft 269 kts 77°
2026-04-25 23:09 26.07543 -80.99476 6893 ft 274 kts 77°
2026-04-25 23:09 26.07966 -80.97405 6887 ft 274 kts 77°
2026-04-25 23:09 26.08393 -80.95317 6885 ft 274 kts 77°
2026-04-25 23:09 26.08735 -80.93238 6877 ft 275 kts 88°
2026-04-25 23:10 26.08667 -80.91115 6937 ft 275 kts 91°
2026-04-25 23:10 26.08524 -80.88998 6950 ft 277 kts 102°
2026-04-25 23:10 26.08012 -80.86942 6970 ft 278 kts 101°
2026-04-25 23:10 26.07663 -80.84811 6877 ft 280 kts 98°
2026-04-25 23:11 26.07406 -80.82667 6378 ft 278 kts 95°
2026-04-25 23:11 26.07224 -80.80572 5893 ft 270 kts 94°
2026-04-25 23:11 26.07102 -80.78531 5404 ft 264 kts 93°
2026-04-25 23:11 26.07019 -80.76530 5026 ft 254 kts 92°
2026-04-25 23:12 26.06959 -80.74634 4963 ft 233 kts 92°
2026-04-25 23:12 26.06917 -80.72879 4960 ft 227 kts 91°
2026-04-25 23:12 26.06885 -80.71094 4976 ft 231 kts 91°
2026-04-25 23:12 26.06864 -80.69306 4974 ft 233 kts 91°
2026-04-25 23:13 26.06846 -80.67487 4967 ft 234 kts 90°
2026-04-25 23:13 26.06832 -80.65691 4966 ft 224 kts 90°
2026-04-25 23:13 26.06822 -80.64027 4960 ft 206 kts 90°
2026-04-25 23:13 26.06815 -80.62450 4973 ft 208 kts 90°
2026-04-25 23:14 26.06808 -80.60818 4988 ft 211 kts 90°
2026-04-25 23:14 26.06801 -80.59182 4989 ft 212 kts 90°
2026-04-25 23:14 26.06795 -80.57546 4987 ft 214 kts 89°
2026-04-25 23:14 26.06789 -80.55897 4984 ft 214 kts 89°
2026-04-25 23:15 26.06784 -80.54254 4979 ft 213 kts 90°
2026-04-25 23:15 26.06778 -80.52606 4981 ft 213 kts 90°
2026-04-25 23:15 26.06772 -80.50954 4992 ft 214 kts 89°
2026-04-25 23:15 26.06766 -80.49340 4980 ft 202 kts 89°
2026-04-25 23:16 26.06760 -80.47823 4969 ft 187 kts 89°
2026-04-25 23:16 26.06755 -80.46412 5052 ft 187 kts 89°
2026-04-25 23:16 26.06749 -80.44916 4897 ft 193 kts 89°
2026-04-25 23:16 26.06743 -80.43484 4663 ft 174 kts 90°
2026-04-25 23:17 26.06737 -80.42159 4496 ft 172 kts 90°
2026-04-25 23:17 26.06732 -80.40799 4285 ft 178 kts 90°
2026-04-25 23:17 26.06725 -80.39471 4057 ft 167 kts 90°
2026-04-25 23:17 26.06719 -80.38191 3842 ft 166 kts 90°
2026-04-25 23:18 26.06713 -80.36890 3625 ft 164 kts 90°
2026-04-25 23:18 26.06707 -80.35577 3404 ft 165 kts 91°
2026-04-25 23:18 26.06697 -80.34294 3186 ft 163 kts 91°
2026-04-25 23:18 26.06686 -80.32996 2964 ft 163 kts 91°
2026-04-25 23:19 26.06677 -80.31742 2750 ft 162 kts 91°
2026-04-25 23:19 26.06671 -80.30449 2530 ft 160 kts 91°
2026-04-25 23:19 26.06664 -80.29186 2315 ft 159 kts 91°
2026-04-25 23:19 26.06657 -80.27966 2104 ft 158 kts 92°
2026-04-25 23:20 26.06650 -80.26751 1897 ft 157 kts 92°
2026-04-25 23:20 26.06643 -80.25537 1688 ft 155 kts 92°
2026-04-25 23:20 26.06628 -80.24362 1494 ft 149 kts 92°
2026-04-25 23:20 26.06610 -80.23225 1231 ft 144 kts 91°
2026-04-25 23:21 26.06623 -80.22155 1040 ft 132 kts 90°
2026-04-25 23:21 26.06626 -80.21172 896 ft 125 kts 92°
2026-04-25 23:21 26.06629 -80.20227 713 ft 122 kts 92°
2026-04-25 23:21 26.06624 -80.19303 572 ft 116 kts 92°
2026-04-25 23:22 26.06606 -80.18422 459 ft 116 kts 94°
2026-04-25 23:22 26.06597 -80.17490 326 ft 119 kts 91°
2026-04-25 23:22 26.06593 -80.16591 167 ft 110 kts 93°
2026-04-25 23:23 26.06585 -80.15031 7 ft 87 kts 87°
2026-04-25 23:23 26.06580 -80.14580 7 ft 39 kts 90°
2026-04-25 23:23 26.06590 -80.14324 7 ft 26 kts 74°
2026-04-25 23:23 26.06634 -80.14237 7 ft 5 kts 32°
2026-04-25 23:24 26.06673 -80.14233 7 ft 5 kts 327°
2026-04-25 23:24 26.06690 -80.14277 7 ft 7 kts 270°
2026-04-25 23:24 26.06690 -80.14362 7 ft 13 kts 270°
2026-04-25 23:24 26.06688 -80.14488 7 ft 18 kts 268°
2026-04-25 23:25 26.06692 -80.14657 7 ft 23 kts 271°
2026-04-25 23:25 26.06694 -80.14862 7 ft 27 kts 268°
2026-04-25 23:25 26.06692 -80.15076 7 ft 16 kts 267°
2026-04-25 23:25 26.06739 -80.15134 7 ft 16 kts 338°
2026-04-25 23:26 26.06779 -80.15285 7 ft 15 kts 307°
2026-04-25 23:26 26.06877 -80.15305 7 ft 12 kts 349°
2026-04-25 23:26 26.06915 -80.15377 7 ft 9 kts 270°
2026-04-25 23:26 26.06885 -80.15440 7 ft 9 kts 224°
2026-04-25 23:27 26.06846 -80.15501 7 ft 10 kts 265°
2026-04-25 23:27 26.06865 -80.15559 7 ft 7 kts 326°
2026-04-25 23:27 26.06896 -80.15568 7 ft 4 kts 46°
2026-04-25 23:27 26.06897 -80.15567 7 ft 0 kts 47°